• în România
  • Lista ţărilor
  • Pe 7 zile
  • Temperatura apei
  • Hartă satelitară
  • Meteo pe hartă
  • Widget-uri
  • user-avatar
    Intrare

    Meteo pe oră la Elbasan

    Astăzi, 26 Aprilie, Miercuri

    Timp Temperatura Precipitaţii Vânt Presiune Umiditate
    00:00 +10°C° 0 mm 1 m/s 737 mmHg 94%
    01:00 +9°C° 0 mm 1 m/s 737 mmHg 93%
    02:00 +9°C° 0 mm 1 m/s 737 mmHg 92%
    03:00 +9°C° 0 mm 1 m/s 737 mmHg 90%
    04:00 +8°C° 0 mm 1 m/s 737 mmHg 88%
    05:00 +10°C° 0 mm 1 m/s 737 mmHg 79%
    06:00 +12°C° 0 mm 1 m/s 737 mmHg 69%
    07:00 +15°C° 0 mm 1 m/s 737 mmHg 60%
    08:00 +18°C° 0 mm 1 m/s 737 mmHg 50%
    09:00 +18°C° 0 mm 2 m/s 737 mmHg 41%
    10:00 +20°C° 0 mm 2 m/s 737 mmHg 31%
    11:00 +21°C° 0 mm 2 m/s 737 mmHg 31%
    12:00 +22°C° 0 mm 3 m/s 737 mmHg 30%
    13:00 +22°C° 0 mm 3 m/s 737 mmHg 30%
    14:00 +22°C° 0 mm 3 m/s 737 mmHg 34%
    15:00 +21°C° 0 mm 3 m/s 736 mmHg 37%
    16:00 +21°C° 0 mm 3 m/s 736 mmHg 41%
    17:00 +18°C° 0 mm 3 m/s 736 mmHg 53%
    18:00 +15°C° 0 mm 2 m/s 736 mmHg 65%
    19:00 +13°C° 0 mm 1 m/s 736 mmHg 78%
    20:00 +12°C° 0 mm 1 m/s 736 mmHg 80%
    21:00 +11°C° 0 mm 1 m/s 737 mmHg 81%
    22:00 +11°C° 0 mm 1 m/s 737 mmHg 83%
    23:00 +11°C° 0 mm 1 m/s 737 mmHg 83%

    Mâine, 27 Aprilie, Joi

    Timp Temperatura Precipitaţii Vânt Presiune Umiditate
    00:00 +10°C° 0 mm 1 m/s 736 mmHg 82%
    01:00 +10°C° 0 mm 1 m/s 736 mmHg 82%
    02:00 +10°C° 0 mm 1 m/s 736 mmHg 80%
    03:00 +10°C° 0 mm 1 m/s 736 mmHg 78%
    04:00 +10°C° 0 mm 1 m/s 736 mmHg 76%
    05:00 +12°C° 0 mm 1 m/s 736 mmHg 68%
    06:00 +15°C° 0 mm 1 m/s 736 mmHg 59%
    07:00 +18°C° 0 mm 1 m/s 736 mmHg 51%
    08:00 +20°C° 0 mm 1 m/s 736 mmHg 45%
    09:00 +22°C° 0 mm 1 m/s 736 mmHg 39%
    10:00 +24°C° 0 mm 1 m/s 736 mmHg 33%
    11:00 +25°C° 0 mm 2 m/s 736 mmHg 33%
    12:00 +25°C° 0 mm 2 m/s 736 mmHg 32%
    13:00 +26°C° 0 mm 3 m/s 736 mmHg 32%
    14:00 +25°C° 0 mm 3 m/s 735 mmHg 35%
    15:00 +24°C° 0 mm 3 m/s 735 mmHg 37%
    16:00 +24°C° 0 mm 3 m/s 735 mmHg 40%
    17:00 +20°C° 0 mm 2 m/s 735 mmHg 51%
    18:00 +17°C° 0 mm 2 m/s 735 mmHg 62%
    19:00 +14°C° 0 mm 1 m/s 735 mmHg 73%
    20:00 +14°C° 0 mm 1 m/s 735 mmHg 74%
    21:00 +13°C° 0 mm 1 m/s 735 mmHg 75%
    22:00 +13°C° 0 mm 1 m/s 735 mmHg 76%
    23:00 +13°C° 0 mm 1 m/s 735 mmHg 74%

    Poimâine, 28 Aprilie, Vineri

    Timp Temperatura Precipitaţii Vânt Presiune Umiditate
    00:00 +13°C° 0 mm 2 m/s 735 mmHg 72%
    01:00 +13°C° 0 mm 2 m/s 735 mmHg 70%
    02:00 +13°C° 0 mm 2 m/s 735 mmHg 69%
    03:00 +12°C° 0 mm 2 m/s 735 mmHg 67%
    04:00 +12°C° 0 mm 2 m/s 734 mmHg 65%
    05:00 +14°C° 0 mm 2 m/s 735 mmHg 59%
    06:00 +16°C° 0 mm 2 m/s 735 mmHg 53%
    07:00 +18°C° 0 mm 2 m/s 735 mmHg 47%
    08:00 +20°C° 0 mm 2 m/s 735 mmHg 42%
    09:00 +23°C° 0 mm 2 m/s 735 mmHg 38%
    10:00 +25°C° 0 mm 3 m/s 735 mmHg 33%
    11:00 +26°C° 0 mm 3 m/s 734 mmHg 33%
    12:00 +26°C° 0 mm 4 m/s 734 mmHg 33%
    13:00 +27°C° 0 mm 5 m/s 734 mmHg 33%
    14:00 +26°C° 0 mm 4 m/s 734 mmHg 38%
    15:00 +25°C° 0 mm 4 m/s 733 mmHg 42%
    16:00 +24°C° 0 mm 3 m/s 733 mmHg 46%
    17:00 +20°C° 0 mm 3 m/s 733 mmHg 53%
    18:00 +18°C° 0 mm 2 m/s 733 mmHg 60%
    19:00 +16°C° 0 mm 2 m/s 733 mmHg 67%
    20:00 +16°C° 0 mm 2 m/s 733 mmHg 67%
    21:00 +16°C° 0 mm 2 m/s 734 mmHg 67%
    22:00 +15°C° 0 mm 2 m/s 734 mmHg 67%
    23:00 +15°C° 0 mm 2 m/s 734 mmHg 66%

    29 Aprilie, Sâmbătă

    Timp Temperatura Precipitaţii Vânt Presiune Umiditate
    00:00 +15°C° 0 mm 2 m/s 733 mmHg 66%
    01:00 +14°C° 0 mm 2 m/s 733 mmHg 65%
    02:00 +14°C° 0 mm 2 m/s 733 mmHg 64%
    03:00 +14°C° 0 mm 2 m/s 733 mmHg 64%
    04:00 +14°C° 0 mm 2 m/s 732 mmHg 63%
    05:00 +15°C° 0 mm 2 m/s 733 mmHg 59%
    06:00 +17°C° 0 mm 2 m/s 733 mmHg 54%
    07:00 +20°C° 0 mm 1 m/s 733 mmHg 50%
    08:00 +20°C° 0 mm 2 m/s 733 mmHg 46%
    09:00 +21°C° 0 mm 2 m/s 733 mmHg 42%
    10:00 +24°C° 0 mm 3 m/s 733 mmHg 39%
    11:00 +24°C° 0 mm 3 m/s 733 mmHg 38%
    12:00 +25°C° 0 mm 4 m/s 733 mmHg 38%
    13:00 +25°C° 0 mm 4 m/s 733 mmHg 38%
    14:00 +23°C° 0 mm 4 m/s 733 mmHg 43%
    15:00 +22°C° 0 mm 3 m/s 733 mmHg 47%
    16:00 +21°C° 0 mm 3 m/s 732 mmHg 52%
    17:00 +20°C° 0,2 mm 2 m/s 733 mmHg 62%
    18:00 +18°C° 0,2 mm 2 m/s 733 mmHg 72%
    19:00 +16°C° 0,2 mm 1 m/s 733 mmHg 83%
    20:00 +16°C° 0,1 mm 1 m/s 733 mmHg 83%
    21:00 +15°C° 0,1 mm 1 m/s 733 mmHg 84%
    22:00 +15°C° 0,1 mm 1 m/s 734 mmHg 84%
    23:00 +15°C° 0 mm 1 m/s 733 mmHg 83%

    30 Aprilie, Duminică

    Timp Temperatura Precipitaţii Vânt Presiune Umiditate
    00:00 +15°C° 0 mm 2 m/s 733 mmHg 83%
    01:00 +15°C° 0 mm 2 m/s 733 mmHg 82%
    02:00 +15°C° 0 mm 2 m/s 733 mmHg 82%
    03:00 +15°C° 0 mm 2 m/s 733 mmHg 82%
    04:00 +14°C° 0 mm 2 m/s 733 mmHg 82%
    05:00 +16°C° 0 mm 2 m/s 733 mmHg 79%
    06:00 +17°C° 0 mm 2 m/s 733 mmHg 76%
    07:00 +18°C° 0 mm 2 m/s 733 mmHg 72%
    08:00 +20°C° 0 mm 2 m/s 734 mmHg 65%
    09:00 +21°C° 0 mm 2 m/s 734 mmHg 59%
    10:00 +24°C° 0 mm 2 m/s 734 mmHg 52%
    11:00 +25°C° 0,2 mm 2 m/s 733 mmHg 51%
    12:00 +25°C° 0,2 mm 3 m/s 733 mmHg 50%
    13:00 +26°C° 0,2 mm 3 m/s 733 mmHg 49%
    14:00 +25°C° 1 mm 3 m/s 733 mmHg 54%
    15:00 +24°C° 1 mm 2 m/s 732 mmHg 59%
    16:00 +23°C° 1 mm 2 m/s 732 mmHg 64%
    17:00 +21°C° 1 mm 2 m/s 732 mmHg 72%
    18:00 +19°C° 1 mm 2 m/s 732 mmHg 80%
    19:00 +18°C° 1 mm 1 m/s 732 mmHg 88%
    20:00 +18°C° 0,9 mm 1 m/s 733 mmHg 89%
    21:00 +18°C° 0,9 mm 1 m/s 733 mmHg 90%
    22:00 +16°C° 0,9 mm 1 m/s 733 mmHg 92%
    23:00 +16°C° 0,9 mm 1 m/s 733 mmHg 92%

    1 Mai, Luni

    Timp Temperatura Precipitaţii Vânt Presiune Umiditate
    00:00 +16°C° 0,9 mm 1 m/s 733 mmHg 92%
    01:00 +15°C° 0,9 mm 1 m/s 733 mmHg 93%
    02:00 +15°C° 0,3 mm 1 m/s 733 mmHg 92%
    03:00 +15°C° 0,3 mm 1 m/s 733 mmHg 92%
    04:00 +14°C° 0,3 mm 1 m/s 733 mmHg 92%
    05:00 +15°C° 0 mm 1 m/s 733 mmHg 87%
    06:00 +18°C° 0 mm 1 m/s 733 mmHg 83%
    07:00 +19°C° 0 mm 1 m/s 733 mmHg 78%
    08:00 +21°C° 0 mm 1 m/s 733 mmHg 70%
    09:00 +22°C° 0 mm 1 m/s 733 mmHg 62%
    10:00 +24°C° 0 mm 2 m/s 734 mmHg 54%
    11:00 +24°C° 0,3 mm 2 m/s 733 mmHg 55%
    12:00 +24°C° 0,3 mm 2 m/s 733 mmHg 55%
    13:00 +24°C° 0,3 mm 3 m/s 733 mmHg 56%
    14:00 +24°C° 0,5 mm 2 m/s 733 mmHg 60%
    15:00 +23°C° 0,5 mm 2 m/s 733 mmHg 64%
    16:00 +23°C° 0,5 mm 2 m/s 733 mmHg 68%
    17:00 +20°C° 0,2 mm 2 m/s 733 mmHg 76%
    18:00 +19°C° 0,2 mm 1 m/s 733 mmHg 84%
    19:00 +16°C° 0,2 mm 1 m/s 733 mmHg 92%
    20:00 +15°C° 0 mm 1 m/s 733 mmHg 92%
    21:00 +15°C° 0 mm 1 m/s 734 mmHg 92%
    22:00 +15°C° 0 mm 1 m/s 734 mmHg 92%
    23:00 +14°C° 0 mm 1 m/s 734 mmHg 92%
    Arată mai mult